PAA19 GOOY-KJFK

Flight info

Callsign PAA19
Flight time 7h 31m
Altitude 32000
Route LUMPO/M084F320 DCT ULTEM DCT 30N040W/M084F340 36N050W/M084F360 40N060W DCT DOVEY/N0485F360 DCT SAILE DCT ACK DCT SEY PARCH4
Aircraft B741/H-SDFHIRWXY/L

Departure

Time 2026-03-23 08:53
Airport Léopold Sédar Senghor International Airport (GOOY)

Arrival

Time 2026-03-23 16:25
Airport John F. Kennedy International Airport (KJFK)
Time Latitude Longitude Altitude Speed Heading
2026-03-23 08:30 14.74434 -17.48877 97 ft 0 kts 16°
2026-03-23 08:40 14.74425 -17.48879 97 ft 2 kts 15°
2026-03-23 08:40 14.74410 -17.48883 96 ft 2 kts 16°
2026-03-23 08:41 14.74396 -17.48889 96 ft 2 kts 28°
2026-03-23 08:41 14.74384 -17.48898 96 ft 2 kts 48°
2026-03-23 08:41 14.74376 -17.48911 95 ft 2 kts 66°
2026-03-23 08:41 14.74372 -17.48926 95 ft 2 kts 85°
2026-03-23 08:42 14.74373 -17.48941 94 ft 1 kts 103°
2026-03-23 08:42 14.74374 -17.48946 94 ft 0 kts 107°
2026-03-23 08:45 14.74372 -17.48940 94 ft 4 kts 107°
2026-03-23 08:45 14.74344 -17.48839 96 ft 21 kts 105°
2026-03-23 08:45 14.74302 -17.48689 93 ft 20 kts 108°
2026-03-23 08:46 14.74275 -17.48648 92 ft 0 kts 150°
2026-03-23 08:46 14.74267 -17.48636 92 ft 3 kts 102°
2026-03-23 08:46 14.74265 -17.48540 92 ft 20 kts 84°
2026-03-23 08:46 14.74288 -17.48400 94 ft 18 kts 79°
2026-03-23 08:47 14.74310 -17.48283 95 ft 15 kts 78°
2026-03-23 08:47 14.74330 -17.48190 97 ft 11 kts 77°
2026-03-23 08:47 14.74315 -17.48096 98 ft 15 kts 111°
2026-03-23 08:47 14.74263 -17.47977 99 ft 19 kts 113°
2026-03-23 08:48 14.74173 -17.47896 98 ft 17 kts 174°
2026-03-23 08:48 14.74054 -17.47886 98 ft 16 kts 176°
2026-03-23 08:48 14.73949 -17.47876 99 ft 15 kts 172°
2026-03-23 08:48 14.73825 -17.47859 100 ft 20 kts 170°
2026-03-23 08:49 14.73668 -17.47834 101 ft 25 kts 172°
2026-03-23 08:49 14.73473 -17.47809 101 ft 30 kts 172°
2026-03-23 08:49 14.73247 -17.47778 99 ft 32 kts 173°
2026-03-23 08:49 14.73031 -17.47748 95 ft 30 kts 172°
2026-03-23 08:50 14.72821 -17.47721 92 ft 29 kts 173°
2026-03-23 08:50 14.72685 -17.47682 90 ft 12 kts 135°
2026-03-23 08:50 14.72654 -17.47671 90 ft 3 kts 215°
2026-03-23 08:50 14.72647 -17.47691 90 ft 2 kts 288°
2026-03-23 08:51 14.72655 -17.47700 90 ft 0 kts 342°
2026-03-23 08:51 14.72658 -17.47700 90 ft 0 kts 354°
2026-03-23 08:51 14.72680 -17.47702 90 ft 0 kts 352°
2026-03-23 08:52 14.72691 -17.47704 90 ft 5 kts 353°
2026-03-23 08:52 14.72893 -17.47728 93 ft 54 kts 354°
2026-03-23 08:52 14.73437 -17.47801 101 ft 100 kts 352°
2026-03-23 08:52 14.74281 -17.47919 99 ft 142 kts 353°
2026-03-23 08:53 14.75398 -17.48064 96 ft 179 kts 353°
2026-03-23 08:53 14.76715 -17.48247 330 ft 189 kts 352°
2026-03-23 08:53 14.77990 -17.48369 828 ft 182 kts 354°
2026-03-23 08:53 14.79253 -17.48453 1278 ft 182 kts 355°
2026-03-23 08:54 14.80508 -17.48544 1763 ft 180 kts 355°
2026-03-23 08:54 14.81790 -17.48633 2074 ft 189 kts 355°
2026-03-23 08:54 14.83147 -17.48651 2319 ft 203 kts 359°
2026-03-23 08:54 14.84620 -17.48628 2569 ft 218 kts 359°
2026-03-23 08:55 14.86205 -17.48610 2821 ft 234 kts 358°
2026-03-23 08:55 14.87888 -17.48615 3168 ft 244 kts 356°
2026-03-23 08:55 14.89582 -17.48603 3721 ft 245 kts 356°
2026-03-23 08:55 14.91244 -17.48958 4093 ft 243 kts 327°
2026-03-23 08:56 14.92407 -17.50160 4475 ft 241 kts 294°
2026-03-23 08:56 14.92848 -17.51825 5016 ft 239 kts 276°
2026-03-23 08:56 14.93139 -17.53499 5716 ft 244 kts 285°
2026-03-23 08:56 14.93789 -17.55136 6382 ft 249 kts 289°
2026-03-23 08:57 14.94435 -17.56832 6912 ft 258 kts 286°
2026-03-23 08:57 14.95026 -17.58596 7436 ft 269 kts 284°
2026-03-23 08:57 14.95622 -17.60472 8060 ft 277 kts 284°
2026-03-23 08:57 14.96204 -17.62335 8863 ft 277 kts 283°
2026-03-23 08:58 14.96797 -17.64260 9453 ft 285 kts 284°
2026-03-23 08:58 14.97403 -17.66226 10101 ft 290 kts 283°
2026-03-23 08:58 14.98010 -17.68193 10765 ft 293 kts 283°
2026-03-23 08:58 14.98633 -17.70214 11437 ft 296 kts 283°
2026-03-23 08:59 14.99254 -17.72227 12095 ft 298 kts 283°
2026-03-23 08:59 14.99886 -17.74277 12757 ft 299 kts 283°
2026-03-23 08:59 15.00514 -17.76316 13373 ft 301 kts 283°
2026-03-23 08:59 15.01152 -17.78392 14008 ft 302 kts 282°
2026-03-23 09:00 15.01785 -17.80450 14645 ft 302 kts 282°
2026-03-23 09:00 15.02418 -17.82506 15246 ft 303 kts 282°
2026-03-23 09:00 15.03055 -17.84581 15863 ft 302 kts 282°
2026-03-23 09:00 15.03686 -17.86633 16475 ft 301 kts 282°
2026-03-23 09:01 15.04317 -17.88693 16966 ft 304 kts 282°
2026-03-23 09:01 15.04962 -17.90795 17514 ft 304 kts 282°
2026-03-23 09:01 15.05598 -17.92862 18026 ft 306 kts 282°
2026-03-23 09:01 15.06242 -17.94964 18495 ft 308 kts 282°
2026-03-23 09:02 15.06898 -17.97106 18910 ft 312 kts 283°
2026-03-23 09:02 15.07548 -17.99226 19436 ft 311 kts 282°
2026-03-23 09:02 15.08197 -18.01336 19926 ft 311 kts 282°
2026-03-23 09:02 15.08854 -18.03485 20361 ft 313 kts 282°
2026-03-23 09:03 15.09511 -18.05632 20729 ft 316 kts 282°
2026-03-23 09:03 15.10179 -18.07812 21148 ft 318 kts 282°
2026-03-23 09:03 15.10841 -18.09976 21528 ft 319 kts 282°
2026-03-23 09:03 15.11510 -18.12162 21938 ft 319 kts 282°
2026-03-23 09:04 15.12182 -18.14359 22340 ft 320 kts 282°
2026-03-23 09:04 15.12854 -18.16561 22647 ft 323 kts 282°
2026-03-23 09:04 15.13530 -18.18775 22948 ft 325 kts 282°
2026-03-23 09:04 15.14214 -18.21015 23329 ft 325 kts 282°
2026-03-23 09:05 15.14896 -18.23238 23679 ft 326 kts 281°
2026-03-23 09:05 15.15578 -18.25476 23984 ft 327 kts 282°
2026-03-23 09:05 15.16266 -18.27727 24354 ft 326 kts 281°
2026-03-23 09:05 15.16947 -18.29961 24607 ft 329 kts 281°
2026-03-23 09:06 15.17631 -18.32213 24894 ft 330 kts 281°
2026-03-23 09:06 15.18325 -18.34488 25210 ft 330 kts 281°
2026-03-23 09:06 15.19008 -18.36726 25575 ft 329 kts 281°
2026-03-23 09:06 15.19705 -18.39017 25786 ft 332 kts 281°
2026-03-23 09:07 15.20392 -18.41274 26029 ft 333 kts 281°
2026-03-23 09:07 15.21093 -18.43579 26292 ft 334 kts 281°
2026-03-23 09:07 15.21786 -18.45859 26562 ft 334 kts 281°
2026-03-23 09:07 15.22482 -18.48148 26851 ft 333 kts 281°
2026-03-23 09:08 15.23176 -18.50429 27051 ft 335 kts 281°
2026-03-23 09:08 15.23880 -18.52750 27188 ft 339 kts 281°
2026-03-23 09:08 15.24578 -18.55050 27514 ft 336 kts 281°
2026-03-23 09:08 15.25285 -18.57375 27764 ft 336 kts 280°
2026-03-23 09:09 15.25987 -18.59689 27851 ft 340 kts 281°
2026-03-23 09:09 15.26699 -18.62040 28099 ft 340 kts 280°
2026-03-23 09:09 15.27399 -18.64346 28344 ft 339 kts 280°
2026-03-23 09:09 15.28110 -18.66695 28492 ft 342 kts 280°
2026-03-23 09:10 15.28819 -18.69037 28736 ft 341 kts 280°
2026-03-23 09:10 15.29534 -18.71399 28922 ft 343 kts 280°
2026-03-23 09:10 15.30244 -18.73745 29058 ft 345 kts 280°
2026-03-23 09:10 15.30965 -18.76126 29323 ft 344 kts 279°
2026-03-23 09:11 15.31678 -18.78485 29509 ft 344 kts 280°
2026-03-23 09:11 15.32389 -18.80838 29668 ft 345 kts 280°
2026-03-23 09:11 15.33833 -18.85626 29902 ft 349 kts 280°
2026-03-23 09:12 15.34557 -18.88018 30103 ft 349 kts 279°
2026-03-23 09:12 15.35279 -18.90411 30261 ft 349 kts 280°
2026-03-23 09:12 15.36005 -18.92815 30391 ft 350 kts 279°
2026-03-23 09:12 15.36731 -18.95226 30560 ft 350 kts 279°
2026-03-23 09:13 15.38190 -19.00067 30753 ft 354 kts 279°
2026-03-23 09:13 15.38913 -19.02470 30882 ft 355 kts 279°
2026-03-23 09:13 15.39652 -19.04925 31019 ft 356 kts 279°
2026-03-23 09:14 15.40387 -19.07373 31129 ft 357 kts 280°
2026-03-23 09:14 15.41125 -19.09822 31266 ft 357 kts 279°
2026-03-23 09:14 15.41858 -19.12260 31394 ft 358 kts 279°
2026-03-23 09:14 15.42602 -19.14738 31483 ft 359 kts 280°
2026-03-23 09:15 15.43339 -19.17189 31699 ft 357 kts 279°
2026-03-23 09:15 15.44079 -19.19644 31884 ft 355 kts 279°
2026-03-23 09:15 15.45543 -19.24528 31962 ft 356 kts 279°
2026-03-23 09:16 15.47004 -19.29404 31956 ft 356 kts 279°
2026-03-23 09:16 15.48473 -19.34315 31959 ft 356 kts 279°
2026-03-23 09:17 15.49935 -19.39205 31959 ft 357 kts 279°
2026-03-23 09:17 15.51400 -19.44103 31955 ft 357 kts 279°
2026-03-23 09:18 15.52874 -19.49035 31958 ft 357 kts 279°
2026-03-23 09:18 15.54338 -19.53946 31960 ft 358 kts 279°
2026-03-23 09:19 15.55798 -19.58842 31960 ft 358 kts 279°
2026-03-23 09:19 15.57264 -19.63760 31955 ft 358 kts 279°
2026-03-23 09:20 15.58732 -19.68699 31955 ft 360 kts 279°
2026-03-23 09:20 15.60212 -19.73676 31960 ft 362 kts 279°
2026-03-23 09:21 15.61691 -19.78659 31961 ft 364 kts 279°
2026-03-23 09:21 15.63184 -19.83685 31956 ft 366 kts 279°
2026-03-23 09:22 15.64687 -19.88752 31961 ft 369 kts 279°
2026-03-23 09:22 15.66194 -19.93837 31959 ft 371 kts 279°
2026-03-23 09:23 15.67730 -19.98956 31950 ft 376 kts 283°
2026-03-23 09:23 15.70330 -20.03784 31969 ft 391 kts 294°
2026-03-23 09:24 15.73385 -20.08492 31970 ft 394 kts 294°
2026-03-23 09:24 15.76439 -20.13213 31976 ft 397 kts 294°
2026-03-23 09:25 15.79508 -20.18010 31979 ft 399 kts 294°
2026-03-23 09:25 15.82583 -20.22832 31973 ft 402 kts 294°
2026-03-23 09:26 15.85678 -20.27691 31983 ft 406 kts 294°
2026-03-23 09:27 15.90364 -20.35061 31980 ft 410 kts 294°
2026-03-23 09:27 15.93521 -20.40032 31983 ft 414 kts 295°
2026-03-23 09:28 15.96692 -20.45028 31982 ft 417 kts 295°
2026-03-23 09:28 15.99886 -20.50063 31975 ft 421 kts 294°
2026-03-23 09:29 16.03126 -20.55173 31978 ft 424 kts 295°
2026-03-23 09:29 16.06379 -20.60311 31980 ft 427 kts 295°
2026-03-23 09:30 16.09661 -20.65497 31984 ft 431 kts 294°
2026-03-23 09:30 16.12975 -20.70737 31976 ft 436 kts 295°
2026-03-23 09:31 16.16297 -20.75991 31973 ft 440 kts 294°
2026-03-23 09:31 16.19680 -20.81348 31977 ft 444 kts 295°
2026-03-23 09:32 16.23080 -20.86734 31975 ft 448 kts 295°
2026-03-23 09:32 16.26513 -20.92178 31973 ft 452 kts 295°
2026-03-23 09:33 16.29953 -20.97637 31974 ft 456 kts 295°
2026-03-23 09:33 16.33445 -21.03182 31973 ft 460 kts 295°
2026-03-23 09:34 16.36961 -21.08768 31971 ft 464 kts 295°
2026-03-23 09:34 16.40511 -21.14413 31969 ft 466 kts 295°
2026-03-23 09:35 16.44061 -21.20064 31968 ft 467 kts 295°
2026-03-23 09:35 16.47616 -21.25724 31969 ft 468 kts 295°
2026-03-23 09:36 16.51177 -21.31400 31970 ft 468 kts 295°
2026-03-23 09:36 16.54723 -21.37057 31970 ft 468 kts 295°
2026-03-23 09:37 16.58285 -21.42746 31970 ft 468 kts 295°
2026-03-23 09:37 16.61820 -21.48394 31973 ft 469 kts 295°
2026-03-23 09:38 16.65383 -21.54092 31970 ft 468 kts 295°
2026-03-23 09:38 16.68933 -21.59774 31979 ft 468 kts 296°
2026-03-23 09:39 16.72473 -21.65445 31982 ft 468 kts 295°
2026-03-23 09:39 16.76027 -21.71146 31970 ft 469 kts 295°
2026-03-23 09:40 16.79577 -21.76842 31981 ft 469 kts 295°
2026-03-23 09:40 16.83153 -21.82581 31977 ft 469 kts 295°
2026-03-23 09:41 16.86699 -21.88282 31973 ft 470 kts 296°
2026-03-23 09:41 16.90247 -21.93988 31982 ft 470 kts 296°
2026-03-23 09:42 16.93809 -21.99721 31984 ft 471 kts 296°
2026-03-23 09:42 16.97346 -22.05421 31981 ft 470 kts 296°
2026-03-23 09:43 17.00914 -22.11174 31982 ft 472 kts 296°
2026-03-23 09:43 17.04473 -22.16919 31981 ft 471 kts 296°
2026-03-23 09:44 17.08037 -22.22675 31984 ft 471 kts 296°
2026-03-23 09:44 17.11589 -22.28417 31982 ft 473 kts 296°
2026-03-23 09:45 17.15153 -22.34183 31984 ft 472 kts 296°
2026-03-23 09:45 17.18712 -22.39945 31978 ft 471 kts 296°
2026-03-23 09:46 17.22256 -22.45689 31981 ft 471 kts 296°
2026-03-23 09:46 17.25803 -22.51443 31978 ft 473 kts 296°
2026-03-23 09:47 17.29378 -22.57245 31980 ft 473 kts 297°
2026-03-23 09:47 17.32912 -22.62989 31979 ft 472 kts 297°
2026-03-23 09:48 17.36482 -22.68794 31980 ft 473 kts 297°
2026-03-23 09:48 17.40015 -22.74543 31979 ft 474 kts 296°
2026-03-23 09:49 17.43599 -22.80382 31981 ft 475 kts 297°
2026-03-23 09:49 17.47152 -22.86173 31980 ft 474 kts 297°
2026-03-23 09:50 17.50708 -22.91975 31977 ft 474 kts 297°
2026-03-23 09:50 17.54271 -22.97794 31979 ft 475 kts 297°
2026-03-23 09:51 17.57830 -23.03611 31978 ft 476 kts 297°
2026-03-23 09:51 17.61394 -23.09443 31979 ft 476 kts 297°
2026-03-23 09:52 17.64978 -23.15311 31980 ft 476 kts 297°
2026-03-23 09:52 17.68533 -23.21137 31974 ft 476 kts 297°
2026-03-23 09:53 17.72095 -23.26981 31973 ft 477 kts 298°
2026-03-23 09:53 17.75646 -23.32809 31967 ft 477 kts 297°
2026-03-23 09:54 17.79218 -23.38679 31968 ft 476 kts 297°
2026-03-23 09:54 17.82775 -23.44528 31973 ft 476 kts 298°
2026-03-23 09:55 17.86326 -23.50374 31970 ft 475 kts 298°
2026-03-23 09:55 17.89866 -23.56205 31967 ft 476 kts 298°
2026-03-23 09:56 17.93404 -23.62041 31973 ft 475 kts 298°
2026-03-23 09:56 17.96960 -23.67910 31973 ft 475 kts 298°
2026-03-23 09:57 18.00494 -23.73749 31963 ft 476 kts 298°
2026-03-23 09:57 18.04042 -23.79615 31957 ft 476 kts 298°
2026-03-23 09:58 18.07598 -23.85499 31959 ft 476 kts 298°
2026-03-23 09:58 18.11122 -23.91338 31961 ft 476 kts 298°
2026-03-23 09:59 18.14663 -23.97209 31956 ft 476 kts 298°
2026-03-23 09:59 18.18209 -24.03093 31960 ft 476 kts 298°
2026-03-23 10:00 18.23531 -24.11936 31971 ft 478 kts 298°
2026-03-23 10:00 18.27071 -24.17824 31973 ft 478 kts 298°
2026-03-23 10:01 18.30630 -24.23749 31974 ft 477 kts 298°
2026-03-23 10:01 18.34159 -24.29629 31972 ft 477 kts 298°
2026-03-23 10:02 18.37704 -24.35541 31976 ft 476 kts 298°
2026-03-23 10:02 18.41222 -24.41414 31974 ft 475 kts 298°
2026-03-23 10:03 18.44729 -24.47273 31971 ft 475 kts 298°
2026-03-23 10:03 18.48235 -24.53139 31973 ft 474 kts 299°
2026-03-23 10:04 18.51749 -24.59022 31977 ft 475 kts 299°
2026-03-23 10:04 18.55274 -24.64927 31975 ft 475 kts 299°
2026-03-23 10:05 18.58788 -24.70823 31975 ft 476 kts 299°
2026-03-23 10:05 18.62291 -24.76702 31976 ft 476 kts 299°
2026-03-23 10:06 18.65827 -24.82643 31974 ft 477 kts 299°
2026-03-23 10:06 18.69331 -24.88537 31977 ft 477 kts 299°
2026-03-23 10:07 18.72843 -24.94449 31980 ft 476 kts 299°
2026-03-23 10:07 18.76365 -25.00384 31981 ft 476 kts 299°
2026-03-23 10:08 18.79866 -25.06288 31977 ft 476 kts 299°
2026-03-23 10:08 18.83366 -25.12197 31976 ft 476 kts 299°
2026-03-23 10:09 18.86873 -25.18125 31976 ft 477 kts 300°
2026-03-23 10:09 18.90384 -25.24063 31978 ft 476 kts 300°
2026-03-23 10:10 18.93869 -25.29964 31975 ft 475 kts 300°
2026-03-23 10:10 18.97374 -25.35904 31979 ft 476 kts 300°
2026-03-23 10:11 19.00862 -25.41821 31976 ft 477 kts 300°
2026-03-23 10:11 19.04376 -25.47787 31976 ft 477 kts 300°
2026-03-23 10:12 19.07869 -25.53724 31978 ft 477 kts 300°
2026-03-23 10:12 19.11352 -25.59650 31981 ft 477 kts 300°
2026-03-23 10:13 19.14857 -25.65619 31976 ft 477 kts 300°
2026-03-23 10:13 19.18345 -25.71563 31981 ft 476 kts 300°
2026-03-23 10:14 19.21834 -25.77518 31975 ft 476 kts 300°
2026-03-23 10:14 19.25309 -25.83453 31979 ft 476 kts 301°
2026-03-23 10:15 19.28790 -25.89403 31976 ft 476 kts 301°
2026-03-23 10:15 19.32274 -25.95364 31980 ft 477 kts 301°
2026-03-23 10:16 19.35746 -26.01312 31982 ft 476 kts 301°
2026-03-23 10:16 19.39216 -26.07261 31977 ft 476 kts 301°
2026-03-23 10:17 19.42677 -26.13202 31988 ft 475 kts 301°
2026-03-23 10:17 19.46150 -26.19169 31982 ft 476 kts 301°
2026-03-23 10:18 19.49627 -26.25149 31985 ft 476 kts 301°
2026-03-23 10:18 19.53103 -26.31130 31985 ft 477 kts 301°
2026-03-23 10:19 19.56569 -26.37102 31987 ft 477 kts 301°
2026-03-23 10:19 19.60031 -26.43074 31987 ft 477 kts 302°
2026-03-23 10:20 19.63498 -26.49061 31980 ft 476 kts 302°
2026-03-23 10:20 19.66964 -26.55050 31992 ft 477 kts 302°
2026-03-23 10:21 19.70426 -26.61040 31997 ft 477 kts 302°
2026-03-23 10:21 19.73889 -26.67037 32000 ft 476 kts 302°
2026-03-23 10:22 19.77344 -26.73026 32001 ft 476 kts 302°
2026-03-23 10:22 19.80779 -26.78986 31996 ft 474 kts 302°
2026-03-23 10:23 19.84199 -26.84928 31995 ft 475 kts 302°
2026-03-23 10:23 19.87638 -26.90906 31999 ft 477 kts 302°
2026-03-23 10:24 19.91107 -26.96943 31999 ft 477 kts 302°
2026-03-23 10:24 19.94558 -27.02959 31996 ft 476 kts 302°
2026-03-23 10:25 19.97997 -27.08958 32001 ft 476 kts 302°
2026-03-23 10:25 20.01418 -27.14929 32002 ft 476 kts 302°
2026-03-23 10:26 20.04870 -27.20961 32000 ft 477 kts 302°
2026-03-23 10:26 20.08321 -27.26998 32003 ft 477 kts 302°
2026-03-23 10:27 20.11743 -27.32992 32009 ft 476 kts 302°
2026-03-23 10:27 20.15176 -27.39012 32003 ft 477 kts 303°
2026-03-23 10:28 20.18617 -27.45050 32009 ft 476 kts 303°
2026-03-23 10:28 20.22031 -27.51047 32010 ft 476 kts 303°
2026-03-23 10:29 20.25451 -27.57061 32009 ft 477 kts 303°
2026-03-23 10:29 20.28890 -27.63114 32013 ft 477 kts 303°
2026-03-23 10:30 20.32321 -27.69162 32017 ft 476 kts 302°
2026-03-23 10:30 20.35737 -27.75187 32013 ft 475 kts 303°
2026-03-23 10:31 20.39143 -27.81201 32013 ft 476 kts 302°
2026-03-23 10:31 20.42557 -27.87236 32019 ft 476 kts 303°
2026-03-23 10:32 20.45964 -27.93266 32026 ft 476 kts 303°
2026-03-23 10:32 20.49387 -27.99329 32022 ft 477 kts 303°
2026-03-23 10:33 20.52806 -28.05392 32025 ft 477 kts 303°
2026-03-23 10:33 20.56205 -28.11428 32030 ft 477 kts 303°
2026-03-23 10:34 20.59607 -28.17473 32027 ft 476 kts 303°
2026-03-23 10:34 20.63017 -28.23540 32025 ft 476 kts 303°
2026-03-23 10:35 20.66411 -28.29584 32031 ft 477 kts 303°
2026-03-23 10:35 20.69828 -28.35675 32026 ft 477 kts 303°
2026-03-23 10:36 20.73230 -28.41748 32019 ft 476 kts 303°
2026-03-23 10:36 20.76611 -28.47790 32024 ft 478 kts 303°
2026-03-23 10:37 20.80026 -28.53897 32030 ft 477 kts 303°
2026-03-23 10:37 20.83414 -28.59964 32029 ft 476 kts 303°
2026-03-23 10:38 20.86794 -28.66023 32031 ft 476 kts 303°
2026-03-23 10:38 20.90186 -28.72108 32034 ft 477 kts 303°
2026-03-23 10:39 20.93571 -28.78191 32031 ft 477 kts 303°
2026-03-23 10:39 20.96967 -28.84297 32036 ft 477 kts 303°
2026-03-23 10:40 21.00363 -28.90410 32034 ft 478 kts 303°
2026-03-23 10:40 21.03748 -28.96512 32040 ft 477 kts 303°
2026-03-23 10:41 21.07127 -29.02607 32038 ft 477 kts 303°
2026-03-23 10:41 21.10490 -29.08682 32041 ft 477 kts 303°
2026-03-23 10:42 21.13868 -29.14791 32045 ft 477 kts 303°
2026-03-23 10:42 21.17258 -29.20929 32040 ft 477 kts 303°
2026-03-23 10:43 21.20626 -29.27032 32040 ft 477 kts 303°
2026-03-23 10:43 21.23990 -29.33136 32037 ft 477 kts 303°
2026-03-23 10:44 21.27362 -29.39259 32038 ft 478 kts 303°
2026-03-23 10:44 21.30712 -29.45351 32037 ft 477 kts 303°
2026-03-23 10:45 21.34076 -29.51475 32038 ft 476 kts 303°
2026-03-23 10:45 21.37449 -29.57621 32037 ft 477 kts 303°
2026-03-23 10:46 21.40791 -29.63718 32040 ft 477 kts 303°
2026-03-23 10:46 21.44179 -29.69906 32037 ft 478 kts 303°
2026-03-23 10:47 21.47537 -29.76046 32036 ft 478 kts 303°
2026-03-23 10:47 21.51321 -29.81805 32042 ft 474 kts 314°
2026-03-23 10:48 21.55934 -29.86894 32039 ft 473 kts 317°
2026-03-23 10:48 21.60625 -29.91850 32035 ft 472 kts 317°
2026-03-23 10:49 21.65275 -29.96824 32039 ft 472 kts 316°
2026-03-23 10:49 21.69931 -30.01849 32037 ft 472 kts 316°
2026-03-23 10:50 21.74539 -30.06839 32037 ft 473 kts 316°
2026-03-23 10:50 21.79165 -30.11856 32041 ft 473 kts 316°
2026-03-23 10:51 21.83795 -30.16882 32038 ft 471 kts 316°
2026-03-23 10:51 21.88425 -30.21911 32038 ft 471 kts 316°
2026-03-23 10:52 21.93041 -30.26930 32043 ft 473 kts 316°
2026-03-23 10:52 21.97670 -30.31968 32046 ft 473 kts 316°
2026-03-23 10:53 22.02290 -30.37003 32046 ft 473 kts 316°
2026-03-23 10:53 22.06892 -30.42022 32048 ft 472 kts 316°
2026-03-23 10:54 22.11497 -30.47049 32051 ft 472 kts 316°
2026-03-23 10:54 22.16118 -30.52098 32054 ft 472 kts 316°
2026-03-23 10:55 22.20748 -30.57163 32049 ft 472 kts 316°
2026-03-23 10:55 22.25344 -30.62196 32057 ft 472 kts 316°
2026-03-23 10:56 22.29969 -30.67266 32058 ft 472 kts 316°
2026-03-23 10:56 22.34569 -30.72313 32061 ft 472 kts 316°
2026-03-23 10:57 22.39185 -30.77381 32060 ft 473 kts 316°
2026-03-23 10:57 22.43781 -30.82434 32065 ft 473 kts 316°
2026-03-23 10:58 22.48374 -30.87488 32068 ft 472 kts 316°
2026-03-23 10:58 22.52974 -30.92555 32061 ft 472 kts 316°
2026-03-23 10:59 22.57602 -30.97658 32073 ft 472 kts 316°
2026-03-23 10:59 22.62204 -31.02739 32071 ft 469 kts 316°
2026-03-23 11:00 22.66772 -31.07787 32073 ft 468 kts 316°
2026-03-23 11:00 22.71316 -31.12812 32074 ft 467 kts 316°
2026-03-23 11:01 22.75899 -31.17885 32076 ft 467 kts 316°
2026-03-23 11:01 22.80443 -31.22921 32074 ft 466 kts 316°
2026-03-23 11:02 22.84978 -31.27952 32077 ft 466 kts 316°
2026-03-23 11:03 22.91782 -31.35510 32080 ft 466 kts 316°
2026-03-23 11:03 22.96341 -31.40580 32077 ft 466 kts 316°
2026-03-23 11:04 23.00840 -31.45589 32074 ft 466 kts 316°
2026-03-23 11:04 23.05359 -31.50626 32068 ft 465 kts 316°
2026-03-23 11:05 23.09881 -31.55671 32074 ft 465 kts 316°
2026-03-23 11:05 23.14386 -31.60703 32076 ft 465 kts 316°
2026-03-23 11:06 23.18885 -31.65733 32075 ft 466 kts 316°
2026-03-23 11:06 23.23405 -31.70790 32077 ft 467 kts 316°
2026-03-23 11:07 23.27816 -31.75730 32072 ft 467 kts 316°
2026-03-23 11:07 23.32342 -31.80805 32077 ft 468 kts 316°
2026-03-23 11:08 23.36874 -31.85893 32079 ft 468 kts 316°
2026-03-23 11:08 23.41390 -31.90968 32077 ft 468 kts 316°
2026-03-23 11:09 23.45928 -31.96073 32081 ft 469 kts 316°
2026-03-23 11:09 23.50479 -32.01197 32079 ft 468 kts 316°
2026-03-23 11:10 23.54997 -32.06287 32080 ft 472 kts 316°
2026-03-23 11:10 23.59595 -32.11474 32082 ft 476 kts 316°
2026-03-23 11:11 23.64175 -32.16649 32082 ft 476 kts 316°
2026-03-23 11:11 23.68778 -32.21856 32082 ft 476 kts 316°
2026-03-23 11:12 23.73380 -32.27067 32083 ft 476 kts 316°
2026-03-23 11:12 23.77973 -32.32272 32084 ft 476 kts 316°
2026-03-23 11:13 23.82553 -32.37468 32084 ft 476 kts 316°
2026-03-23 11:13 23.87168 -32.42710 32087 ft 477 kts 316°
2026-03-23 11:14 23.91737 -32.47906 32089 ft 477 kts 316°
2026-03-23 11:14 23.96348 -32.53155 32088 ft 477 kts 316°
2026-03-23 11:15 24.00934 -32.58382 32092 ft 477 kts 316°
2026-03-23 11:15 24.05510 -32.63602 32092 ft 476 kts 316°
2026-03-23 11:16 24.10111 -32.68858 32092 ft 477 kts 315°
2026-03-23 11:16 24.14682 -32.74083 32101 ft 478 kts 315°
2026-03-23 11:17 24.19309 -32.79379 32099 ft 479 kts 315°
2026-03-23 11:17 24.23911 -32.84653 32095 ft 479 kts 315°
2026-03-23 11:18 24.28477 -32.89891 32096 ft 478 kts 315°
2026-03-23 11:18 24.33092 -32.95192 32099 ft 478 kts 315°
2026-03-23 11:19 24.37659 -33.00442 32104 ft 479 kts 315°
2026-03-23 11:19 24.42273 -33.05753 32106 ft 479 kts 315°
2026-03-23 11:20 24.46853 -33.11032 32102 ft 479 kts 315°
2026-03-23 11:20 24.51456 -33.16341 32106 ft 480 kts 315°
2026-03-23 11:21 24.56065 -33.21665 32107 ft 482 kts 315°
2026-03-23 11:21 24.60680 -33.27002 32105 ft 482 kts 315°
2026-03-23 11:22 24.65270 -33.32315 32105 ft 481 kts 315°
2026-03-23 11:22 24.69867 -33.37643 32104 ft 481 kts 315°
2026-03-23 11:23 24.74486 -33.43002 32108 ft 482 kts 315°
2026-03-23 11:23 24.79070 -33.48328 32110 ft 481 kts 315°
2026-03-23 11:24 24.83675 -33.53682 32110 ft 482 kts 315°
2026-03-23 11:24 24.88294 -33.59060 32112 ft 482 kts 315°
2026-03-23 11:25 24.92916 -33.64447 32115 ft 483 kts 315°
2026-03-23 11:25 24.97505 -33.69803 32121 ft 484 kts 314°
2026-03-23 11:26 25.02128 -33.75205 32123 ft 483 kts 314°
2026-03-23 11:26 25.06739 -33.80598 32135 ft 483 kts 314°
2026-03-23 11:27 25.11354 -33.86003 32137 ft 483 kts 314°
2026-03-23 11:27 25.15931 -33.91371 32138 ft 483 kts 314°
2026-03-23 11:28 25.20557 -33.96801 32142 ft 485 kts 314°
2026-03-23 11:28 25.25179 -34.02232 32143 ft 486 kts 314°
2026-03-23 11:29 25.29803 -34.07674 32141 ft 486 kts 314°
2026-03-23 11:29 25.34426 -34.13121 32142 ft 487 kts 314°
2026-03-23 11:30 25.39045 -34.18570 32142 ft 487 kts 314°
2026-03-23 11:30 25.43655 -34.24014 32141 ft 487 kts 314°
2026-03-23 11:31 25.48296 -34.29500 32143 ft 487 kts 314°
2026-03-23 11:31 25.52902 -34.34954 32141 ft 487 kts 314°
2026-03-23 11:32 25.57531 -34.40439 32143 ft 489 kts 314°
2026-03-23 11:32 25.62182 -34.45958 32141 ft 489 kts 314°
2026-03-23 11:33 25.66829 -34.51479 32142 ft 490 kts 314°
2026-03-23 11:33 25.71465 -34.56995 32142 ft 490 kts 314°
2026-03-23 11:34 25.76084 -34.62497 32142 ft 490 kts 314°
2026-03-23 11:34 25.80739 -34.68047 32142 ft 491 kts 314°
2026-03-23 11:35 25.85380 -34.73589 32141 ft 492 kts 313°
2026-03-23 11:35 25.90044 -34.79165 32141 ft 493 kts 313°
2026-03-23 11:36 25.94695 -34.84730 32142 ft 493 kts 313°
2026-03-23 11:36 25.99359 -34.90322 32142 ft 492 kts 313°
2026-03-23 11:37 26.04015 -34.95909 32144 ft 492 kts 313°
2026-03-23 11:37 26.08644 -35.01469 32143 ft 492 kts 313°
2026-03-23 11:38 26.13290 -35.07058 32145 ft 494 kts 313°
2026-03-23 11:38 26.17948 -35.12669 32147 ft 495 kts 313°
2026-03-23 11:39 26.22625 -35.18310 32147 ft 494 kts 313°
2026-03-23 11:39 26.27278 -35.23929 32146 ft 493 kts 313°
2026-03-23 11:40 26.31930 -35.29554 32149 ft 494 kts 313°
2026-03-23 11:40 26.36566 -35.35166 32148 ft 495 kts 313°
2026-03-23 11:41 26.41239 -35.40830 32151 ft 496 kts 313°
2026-03-23 11:41 26.45905 -35.46493 32154 ft 497 kts 313°
2026-03-23 11:42 26.50576 -35.52170 32152 ft 497 kts 313°
2026-03-23 11:42 26.55235 -35.57840 32153 ft 497 kts 313°
2026-03-23 11:43 26.59905 -35.63530 32156 ft 498 kts 313°
2026-03-23 11:43 26.64601 -35.69259 32157 ft 498 kts 313°
2026-03-23 11:44 26.69286 -35.74983 32156 ft 499 kts 313°
2026-03-23 11:44 26.73982 -35.80727 32158 ft 500 kts 312°
2026-03-23 11:45 26.78652 -35.86447 32158 ft 501 kts 312°
2026-03-23 11:45 26.83349 -35.92209 32160 ft 502 kts 312°
2026-03-23 11:46 26.88058 -35.97992 32162 ft 501 kts 313°
2026-03-23 11:46 26.92761 -36.03775 32163 ft 502 kts 312°
2026-03-23 11:47 26.97468 -36.09571 32163 ft 502 kts 313°
2026-03-23 11:47 27.02202 -36.15408 32163 ft 503 kts 312°
2026-03-23 11:48 27.09267 -36.24134 32164 ft 504 kts 312°
2026-03-23 11:48 27.13997 -36.29987 32166 ft 504 kts 312°
2026-03-23 11:49 27.18707 -36.35823 32166 ft 502 kts 312°
2026-03-23 11:49 27.23391 -36.41634 32168 ft 502 kts 312°
2026-03-23 11:50 27.28080 -36.47459 32169 ft 503 kts 312°
2026-03-23 11:50 27.32827 -36.53364 32169 ft 504 kts 312°
2026-03-23 11:51 27.37507 -36.59193 32170 ft 506 kts 312°
2026-03-23 11:51 27.42225 -36.65079 32171 ft 505 kts 312°
2026-03-23 11:52 27.46930 -36.70956 32173 ft 504 kts 312°
2026-03-23 11:52 27.51610 -36.76810 32174 ft 504 kts 312°
2026-03-23 11:53 27.56302 -36.82687 32174 ft 504 kts 312°
2026-03-23 11:53 27.60993 -36.88570 32175 ft 505 kts 312°
2026-03-23 11:54 27.65688 -36.94467 32177 ft 506 kts 312°
2026-03-23 11:54 27.70388 -37.00379 32177 ft 507 kts 312°
2026-03-23 11:55 27.75089 -37.06300 32178 ft 506 kts 312°
2026-03-23 11:55 27.79780 -37.12217 32175 ft 506 kts 312°
2026-03-23 11:56 27.84485 -37.18160 32176 ft 505 kts 312°
2026-03-23 11:56 27.89169 -37.24083 32170 ft 506 kts 312°
2026-03-23 11:57 27.93859 -37.30024 32162 ft 507 kts 312°
2026-03-23 11:57 27.98567 -37.35995 32165 ft 508 kts 312°
2026-03-23 11:58 28.03266 -37.41942 32164 ft 507 kts 312°
2026-03-23 11:58 28.07976 -37.47911 32165 ft 507 kts 312°
2026-03-23 11:59 28.12667 -37.53880 32165 ft 507 kts 312°
2026-03-23 11:59 28.17355 -37.59862 32166 ft 507 kts 312°
2026-03-23 12:00 28.22041 -37.65850 32168 ft 507 kts 311°
2026-03-23 12:00 28.26718 -37.71836 32168 ft 507 kts 311°
2026-03-23 12:01 28.31394 -37.77828 32171 ft 507 kts 311°
2026-03-23 12:01 28.36062 -37.83818 32171 ft 508 kts 311°
2026-03-23 12:02 28.40752 -37.89845 32172 ft 508 kts 311°
2026-03-23 12:02 28.45403 -37.95829 32181 ft 507 kts 311°
2026-03-23 12:03 28.50077 -38.01854 32192 ft 507 kts 311°
2026-03-23 12:03 28.54749 -38.07885 32195 ft 508 kts 311°
2026-03-23 12:04 28.59396 -38.13891 32197 ft 507 kts 311°
2026-03-23 12:04 28.64052 -38.19918 32197 ft 507 kts 311°
2026-03-23 12:05 28.68702 -38.25947 32198 ft 507 kts 311°
2026-03-23 12:05 28.73367 -38.32003 32198 ft 507 kts 311°
2026-03-23 12:06 28.78040 -38.38079 32200 ft 507 kts 311°
2026-03-23 12:06 28.82673 -38.44131 32199 ft 506 kts 311°
2026-03-23 12:07 28.87277 -38.50148 32201 ft 507 kts 311°
2026-03-23 12:07 28.91934 -38.56232 32202 ft 508 kts 311°
2026-03-23 12:08 28.96589 -38.62320 32203 ft 508 kts 311°
2026-03-23 12:08 29.01252 -38.68427 32204 ft 508 kts 311°
2026-03-23 12:09 29.05884 -38.74503 32204 ft 509 kts 310°
2026-03-23 12:09 29.10520 -38.80593 32204 ft 508 kts 310°
2026-03-23 12:10 29.15171 -38.86713 32204 ft 508 kts 310°
2026-03-23 12:10 29.19804 -38.92818 32204 ft 509 kts 310°
2026-03-23 12:11 29.24449 -38.98948 32204 ft 509 kts 310°
2026-03-23 12:11 29.29080 -39.05069 32204 ft 509 kts 310°
2026-03-23 12:12 29.33734 -39.11228 32202 ft 509 kts 310°
2026-03-23 12:12 29.38378 -39.17385 32202 ft 509 kts 310°
2026-03-23 12:13 29.42925 -39.23423 32201 ft 509 kts 310°
2026-03-23 12:13 29.47488 -39.29491 32201 ft 508 kts 310°
2026-03-23 12:14 29.51974 -39.35463 32200 ft 508 kts 310°
2026-03-23 12:14 29.56560 -39.41579 32200 ft 509 kts 310°
2026-03-23 12:15 29.61078 -39.47614 32201 ft 509 kts 310°
2026-03-23 12:15 29.65626 -39.53697 32200 ft 509 kts 310°
2026-03-23 12:16 29.70140 -39.59745 32200 ft 509 kts 310°
2026-03-23 12:16 29.74732 -39.65906 32201 ft 508 kts 310°
2026-03-23 12:17 29.78912 -39.71523 32201 ft 508 kts 310°
2026-03-23 12:18 29.87559 -39.83168 32202 ft 508 kts 310°
2026-03-23 12:18 29.92156 -39.89372 32203 ft 509 kts 310°
2026-03-23 12:19 29.96766 -39.95603 32203 ft 509 kts 310°
2026-03-23 12:19 30.01349 -40.01890 32202 ft 509 kts 308°
2026-03-23 12:20 30.05716 -40.08271 32202 ft 509 kts 308°
2026-03-23 12:20 30.10074 -40.14723 32200 ft 509 kts 307°
2026-03-23 12:21 30.14450 -40.21188 32202 ft 510 kts 307°
2026-03-23 12:21 30.18833 -40.27656 32197 ft 510 kts 308°
2026-03-23 12:22 30.23215 -40.34129 32162 ft 510 kts 308°
2026-03-23 12:22 30.25379 -40.37328 32379 ft 507 kts 308°
2026-03-23 12:22 30.27565 -40.40561 32637 ft 509 kts 308°
2026-03-23 12:23 30.29741 -40.43781 32886 ft 510 kts 308°
2026-03-23 12:23 30.31911 -40.46997 33131 ft 511 kts 308°
2026-03-23 12:23 30.34102 -40.50248 33377 ft 511 kts 307°
2026-03-23 12:23 30.36299 -40.53509 33635 ft 511 kts 307°
2026-03-23 12:24 30.38451 -40.56708 33907 ft 510 kts 307°
2026-03-23 12:24 30.40648 -40.59974 34138 ft 510 kts 307°
2026-03-23 12:25 30.47190 -40.69721 34192 ft 511 kts 307°
2026-03-23 12:25 30.51547 -40.76226 34192 ft 507 kts 307°
2026-03-23 12:26 30.55842 -40.82648 34193 ft 506 kts 307°
2026-03-23 12:26 30.60172 -40.89132 34194 ft 506 kts 307°
2026-03-23 12:27 30.66632 -40.98825 34194 ft 506 kts 307°
2026-03-23 12:27 30.70918 -41.05270 34191 ft 506 kts 307°
2026-03-23 12:28 30.75198 -41.11716 34188 ft 505 kts 307°
2026-03-23 12:28 30.79492 -41.18194 34188 ft 505 kts 307°
2026-03-23 12:29 30.83772 -41.24662 34189 ft 504 kts 307°
2026-03-23 12:29 30.88044 -41.31128 34191 ft 504 kts 307°
2026-03-23 12:30 30.92327 -41.37621 34194 ft 505 kts 307°
2026-03-23 12:30 30.96599 -41.44109 34188 ft 505 kts 306°
2026-03-23 12:31 31.00854 -41.50581 34191 ft 505 kts 306°
2026-03-23 12:31 31.05132 -41.57100 34190 ft 504 kts 306°
2026-03-23 12:32 31.09391 -41.63599 34188 ft 504 kts 306°
2026-03-23 12:32 31.13649 -41.70108 34191 ft 504 kts 306°
2026-03-23 12:33 31.17887 -41.76598 34189 ft 504 kts 306°
2026-03-23 12:33 31.22133 -41.83109 34193 ft 504 kts 306°
2026-03-23 12:34 31.26397 -41.89662 34189 ft 504 kts 306°
2026-03-23 12:34 31.30656 -41.96216 34186 ft 504 kts 306°
2026-03-23 12:35 31.34894 -42.02750 34179 ft 503 kts 306°
2026-03-23 12:35 31.39113 -42.09264 34181 ft 503 kts 306°
2026-03-23 12:36 31.43345 -42.15810 34183 ft 504 kts 306°
2026-03-23 12:36 31.47580 -42.22372 34188 ft 504 kts 305°
2026-03-23 12:37 31.51801 -42.28923 34186 ft 505 kts 306°
2026-03-23 12:37 31.56020 -42.35482 34185 ft 505 kts 305°
2026-03-23 12:38 31.60241 -42.42054 34183 ft 505 kts 305°
2026-03-23 12:38 31.64463 -42.48639 34182 ft 505 kts 305°
2026-03-23 12:39 31.68692 -42.55250 34182 ft 506 kts 305°
2026-03-23 12:39 31.72924 -42.61872 34182 ft 506 kts 305°
2026-03-23 12:40 31.77140 -42.68484 34183 ft 507 kts 305°
2026-03-23 12:40 31.81367 -42.75126 34183 ft 506 kts 304°
2026-03-23 12:41 31.85563 -42.81739 34184 ft 507 kts 305°
2026-03-23 12:41 31.89790 -42.88392 34178 ft 509 kts 304°
2026-03-23 12:42 31.94015 -42.95056 34168 ft 510 kts 304°
2026-03-23 12:42 31.98265 -43.01776 34170 ft 512 kts 304°
2026-03-23 12:43 32.02525 -43.08527 34170 ft 513 kts 304°
2026-03-23 12:43 32.06747 -43.15229 34166 ft 514 kts 304°
2026-03-23 12:44 32.10999 -43.21991 34165 ft 514 kts 304°
2026-03-23 12:44 32.15265 -43.28786 34167 ft 513 kts 304°
2026-03-23 12:45 32.19497 -43.35538 34164 ft 513 kts 304°
2026-03-23 12:45 32.23737 -43.42316 34164 ft 513 kts 304°
2026-03-23 12:46 32.27963 -43.49084 34164 ft 513 kts 304°
2026-03-23 12:46 32.32223 -43.55917 34169 ft 513 kts 304°
2026-03-23 12:47 32.36456 -43.62723 34171 ft 514 kts 304°
2026-03-23 12:47 32.40723 -43.69592 34166 ft 514 kts 303°
2026-03-23 12:48 32.44974 -43.76449 34161 ft 514 kts 303°
2026-03-23 12:48 32.49211 -43.83296 34157 ft 514 kts 303°
2026-03-23 12:49 32.53454 -43.90164 34147 ft 514 kts 303°
2026-03-23 12:49 32.57695 -43.97043 34147 ft 515 kts 303°
2026-03-23 12:50 32.61937 -44.03934 34138 ft 515 kts 303°
2026-03-23 12:50 32.66193 -44.10863 34133 ft 515 kts 303°
2026-03-23 12:51 32.70419 -44.17755 34129 ft 516 kts 303°
2026-03-23 12:51 32.74627 -44.24632 34130 ft 516 kts 303°
2026-03-23 12:52 32.78869 -44.31573 34131 ft 516 kts 303°
2026-03-23 12:52 32.83081 -44.38480 34128 ft 517 kts 303°
2026-03-23 12:53 32.87333 -44.45467 34128 ft 517 kts 303°
2026-03-23 12:53 32.91551 -44.52409 34123 ft 518 kts 303°
2026-03-23 12:54 32.95800 -44.59415 34127 ft 519 kts 303°
2026-03-23 12:54 33.00015 -44.66380 34120 ft 520 kts 302°
2026-03-23 12:55 33.04257 -44.73402 34116 ft 521 kts 302°
2026-03-23 12:55 33.08470 -44.80389 34114 ft 521 kts 302°
2026-03-23 12:56 33.12694 -44.87407 34115 ft 521 kts 302°
2026-03-23 12:56 33.16915 -44.94433 34113 ft 520 kts 302°
2026-03-23 12:57 33.21111 -45.01432 34115 ft 521 kts 302°
2026-03-23 12:57 33.25324 -45.08471 34108 ft 521 kts 302°
2026-03-23 12:58 33.29517 -45.15492 34102 ft 521 kts 302°
2026-03-23 12:58 33.33715 -45.22533 34100 ft 521 kts 302°
2026-03-23 12:59 33.37917 -45.29596 34097 ft 521 kts 301°
2026-03-23 12:59 33.42108 -45.36653 34096 ft 521 kts 301°
2026-03-23 13:00 33.46295 -45.43716 34090 ft 521 kts 301°
2026-03-23 13:01 33.52586 -45.54356 34088 ft 522 kts 301°
2026-03-23 13:01 33.56784 -45.61473 34085 ft 522 kts 301°
2026-03-23 13:02 33.60970 -45.68582 34082 ft 522 kts 301°
2026-03-23 13:02 33.65129 -45.75660 34078 ft 522 kts 301°
2026-03-23 13:03 33.69290 -45.82754 34077 ft 522 kts 301°
2026-03-23 13:03 33.73456 -45.89872 34071 ft 521 kts 301°
2026-03-23 13:04 33.77623 -45.97006 34070 ft 521 kts 301°
2026-03-23 13:04 33.81795 -46.04161 34066 ft 521 kts 301°
2026-03-23 13:05 33.85938 -46.11280 34065 ft 523 kts 300°
2026-03-23 13:05 33.90102 -46.18451 34065 ft 524 kts 300°
2026-03-23 13:06 33.94270 -46.25644 34063 ft 525 kts 300°
2026-03-23 13:06 33.98420 -46.32816 34060 ft 526 kts 300°
2026-03-23 13:07 34.02599 -46.40054 34060 ft 526 kts 300°
2026-03-23 13:07 34.06775 -46.47301 34057 ft 526 kts 300°
2026-03-23 13:08 34.10956 -46.54574 34054 ft 527 kts 300°
2026-03-23 13:08 34.15118 -46.61826 34054 ft 527 kts 300°
2026-03-23 13:09 34.19271 -46.69079 34050 ft 527 kts 299°
2026-03-23 13:09 34.23431 -46.76358 34051 ft 527 kts 299°
2026-03-23 13:10 34.27599 -46.83663 34047 ft 527 kts 299°
2026-03-23 13:10 34.31747 -46.90951 34045 ft 528 kts 299°
2026-03-23 13:11 34.35897 -46.98258 34041 ft 529 kts 299°
2026-03-23 13:11 34.40030 -47.05548 34039 ft 529 kts 299°
2026-03-23 13:12 34.44202 -47.12921 34033 ft 529 kts 299°
2026-03-23 13:12 34.48336 -47.20243 34029 ft 530 kts 299°
2026-03-23 13:13 34.52493 -47.27622 34022 ft 531 kts 299°
2026-03-23 13:13 34.56641 -47.35001 34019 ft 531 kts 299°
2026-03-23 13:14 34.60786 -47.42386 34018 ft 532 kts 299°
2026-03-23 13:14 34.64951 -47.49823 34017 ft 531 kts 299°
2026-03-23 13:15 34.69078 -47.57209 34015 ft 532 kts 299°
2026-03-23 13:15 34.73237 -47.64669 34014 ft 532 kts 299°
2026-03-23 13:16 34.77371 -47.72099 34012 ft 532 kts 298°
2026-03-23 13:16 34.81506 -47.79544 34010 ft 532 kts 298°
2026-03-23 13:17 34.85628 -47.86982 34009 ft 531 kts 298°
2026-03-23 13:17 34.89747 -47.94432 34007 ft 531 kts 298°
2026-03-23 13:18 34.93844 -48.01856 34003 ft 531 kts 298°
2026-03-23 13:18 34.97977 -48.09362 34001 ft 531 kts 298°
2026-03-23 13:19 35.02070 -48.16812 34005 ft 531 kts 298°
2026-03-23 13:19 35.06179 -48.24304 34000 ft 531 kts 298°
2026-03-23 13:20 35.10260 -48.31763 33987 ft 531 kts 298°
2026-03-23 13:20 35.14341 -48.39236 33988 ft 530 kts 298°
2026-03-23 13:21 35.18430 -48.46744 33973 ft 530 kts 298°
2026-03-23 13:21 35.22499 -48.54229 33974 ft 530 kts 298°
2026-03-23 13:22 35.26556 -48.61709 33969 ft 530 kts 298°
2026-03-23 13:22 35.30615 -48.69204 33959 ft 529 kts 297°
2026-03-23 13:23 35.34674 -48.76720 33957 ft 529 kts 297°
2026-03-23 13:23 35.38708 -48.84204 33952 ft 529 kts 297°
2026-03-23 13:24 35.42759 -48.91735 33938 ft 529 kts 297°
2026-03-23 13:24 35.46809 -48.99280 33938 ft 529 kts 297°
2026-03-23 13:25 35.50824 -49.06778 33939 ft 529 kts 297°
2026-03-23 13:25 35.54856 -49.14323 33928 ft 530 kts 297°
2026-03-23 13:26 35.58898 -49.21903 33924 ft 531 kts 297°
2026-03-23 13:26 35.62911 -49.29446 33921 ft 531 kts 297°
2026-03-23 13:27 35.66960 -49.37072 33917 ft 532 kts 297°
2026-03-23 13:27 35.70976 -49.44654 33919 ft 532 kts 297°
2026-03-23 13:28 35.75033 -49.52329 33915 ft 533 kts 297°
2026-03-23 13:28 35.79045 -49.59936 33915 ft 534 kts 297°
2026-03-23 13:29 35.83090 -49.67623 33913 ft 535 kts 296°
2026-03-23 13:29 35.87129 -49.75315 33914 ft 535 kts 296°
2026-03-23 13:30 35.91150 -49.82990 33907 ft 535 kts 296°
2026-03-23 13:30 35.95184 -49.90708 33908 ft 536 kts 296°
2026-03-23 13:31 35.99197 -49.98403 33902 ft 536 kts 296°
2026-03-23 13:31 36.03022 -50.06265 33907 ft 534 kts 293°
2026-03-23 13:32 36.06665 -50.14194 33903 ft 534 kts 292°
2026-03-23 13:32 36.10330 -50.22178 33904 ft 535 kts 292°
2026-03-23 13:33 36.14022 -50.30180 33912 ft 534 kts 293°
2026-03-23 13:33 36.17675 -50.38103 33908 ft 535 kts 293°
2026-03-23 13:34 36.21360 -50.46109 33909 ft 535 kts 293°
2026-03-23 13:34 36.25024 -50.54091 33917 ft 534 kts 293°
2026-03-23 13:35 36.28674 -50.62063 33912 ft 534 kts 293°
2026-03-23 13:35 36.32327 -50.70061 33915 ft 533 kts 292°
2026-03-23 13:36 36.35970 -50.78057 33917 ft 534 kts 292°
2026-03-23 13:36 36.39601 -50.86047 33918 ft 534 kts 292°
2026-03-23 13:37 36.43248 -50.94085 33921 ft 534 kts 292°
2026-03-23 13:37 36.46878 -51.02112 33924 ft 535 kts 292°
2026-03-23 13:38 36.50498 -51.10131 33929 ft 534 kts 292°
2026-03-23 13:38 36.54111 -51.18159 33935 ft 535 kts 293°
2026-03-23 13:39 36.57731 -51.26220 33940 ft 536 kts 293°
2026-03-23 13:39 36.61350 -51.34295 33947 ft 535 kts 293°
2026-03-23 13:40 36.64974 -51.42405 33959 ft 536 kts 293°
2026-03-23 13:40 36.68576 -51.50485 33964 ft 536 kts 293°
2026-03-23 13:41 36.72178 -51.58580 33968 ft 536 kts 293°
2026-03-23 13:41 36.75795 -51.66736 33974 ft 536 kts 293°
2026-03-23 13:42 36.79369 -51.74809 33978 ft 535 kts 292°
2026-03-23 13:42 36.82954 -51.82928 33983 ft 535 kts 293°
2026-03-23 13:43 36.86531 -51.91053 33992 ft 535 kts 293°
2026-03-23 13:43 36.90116 -51.99215 34002 ft 535 kts 293°
2026-03-23 13:44 36.93667 -52.07320 34005 ft 535 kts 293°
2026-03-23 13:44 36.97236 -52.15485 34006 ft 535 kts 294°
2026-03-23 13:45 37.00786 -52.23630 34008 ft 535 kts 294°
2026-03-23 13:45 37.04337 -52.31791 34014 ft 533 kts 294°
2026-03-23 13:46 37.07841 -52.39869 34028 ft 531 kts 294°
2026-03-23 13:46 37.11352 -52.47981 34027 ft 529 kts 294°
2026-03-23 13:47 37.14850 -52.56086 34042 ft 528 kts 294°
2026-03-23 13:47 37.18304 -52.64106 34044 ft 525 kts 295°
2026-03-23 13:48 37.21765 -52.72166 34044 ft 524 kts 294°
2026-03-23 13:48 37.25193 -52.80171 34052 ft 522 kts 294°
2026-03-23 13:49 37.28607 -52.88157 34061 ft 521 kts 295°
2026-03-23 13:49 37.32019 -52.96157 34057 ft 521 kts 295°
2026-03-23 13:50 37.35419 -53.04156 34075 ft 519 kts 295°
2026-03-23 13:50 37.38800 -53.12125 34079 ft 518 kts 295°
2026-03-23 13:51 37.43874 -53.24123 34075 ft 517 kts 295°
2026-03-23 13:51 37.47244 -53.32116 34082 ft 517 kts 295°
2026-03-23 13:52 37.50591 -53.40075 34081 ft 516 kts 296°
2026-03-23 13:52 37.53933 -53.48042 34085 ft 516 kts 296°
2026-03-23 13:53 37.57273 -53.56024 34080 ft 515 kts 296°
2026-03-23 13:53 37.60598 -53.63988 34082 ft 515 kts 296°
2026-03-23 13:54 37.63924 -53.71978 34080 ft 515 kts 295°
2026-03-23 13:54 37.67244 -53.79972 34081 ft 515 kts 295°
2026-03-23 13:55 37.70546 -53.87944 34087 ft 514 kts 295°
2026-03-23 13:55 37.73835 -53.95903 34086 ft 513 kts 296°
2026-03-23 13:56 37.77114 -54.03858 34088 ft 512 kts 296°
2026-03-23 13:56 37.80389 -54.11824 34088 ft 512 kts 296°
2026-03-23 13:57 37.83668 -54.19822 34094 ft 513 kts 296°
2026-03-23 13:57 37.86923 -54.27777 34098 ft 513 kts 296°
2026-03-23 13:58 37.90200 -54.35809 34096 ft 513 kts 296°
2026-03-23 13:58 37.93449 -54.43792 34100 ft 510 kts 296°
2026-03-23 13:59 37.96668 -54.51736 34098 ft 499 kts 297°
2026-03-23 13:59 37.99825 -54.59538 34137 ft 503 kts 298°
2026-03-23 14:00 38.01421 -54.63480 34270 ft 505 kts 298°
2026-03-23 14:00 38.03011 -54.67416 34381 ft 506 kts 298°
2026-03-23 14:00 38.04620 -54.71404 34500 ft 507 kts 298°
2026-03-23 14:00 38.06215 -54.75363 34599 ft 508 kts 298°
2026-03-23 14:01 38.07825 -54.79366 34709 ft 508 kts 298°
2026-03-23 14:01 38.09433 -54.83367 34821 ft 509 kts 298°
2026-03-23 14:01 38.11037 -54.87366 34938 ft 509 kts 298°
2026-03-23 14:01 38.12631 -54.91346 35059 ft 509 kts 298°
2026-03-23 14:02 38.14231 -54.95341 35218 ft 507 kts 298°
2026-03-23 14:02 38.15837 -54.99343 35386 ft 506 kts 298°
2026-03-23 14:02 38.17438 -55.03339 35570 ft 505 kts 298°
2026-03-23 14:02 38.19012 -55.07276 35718 ft 504 kts 297°
2026-03-23 14:03 38.20605 -55.11274 35890 ft 503 kts 297°
2026-03-23 14:03 38.22183 -55.15240 36040 ft 499 kts 297°
2026-03-23 14:03 38.25296 -55.23089 36125 ft 495 kts 298°
2026-03-23 14:04 38.28377 -55.30878 36118 ft 494 kts 298°
2026-03-23 14:04 38.31460 -55.38686 36120 ft 493 kts 298°
2026-03-23 14:05 38.34523 -55.46466 36123 ft 493 kts 298°
2026-03-23 14:05 38.37609 -55.54326 36119 ft 492 kts 298°
2026-03-23 14:06 38.40678 -55.62162 36113 ft 492 kts 298°
2026-03-23 14:06 38.43720 -55.69946 36113 ft 491 kts 297°
2026-03-23 14:07 38.46756 -55.77735 36111 ft 491 kts 297°
2026-03-23 14:07 38.49784 -55.85526 36107 ft 490 kts 297°
2026-03-23 14:08 38.52806 -55.93319 36108 ft 490 kts 297°
2026-03-23 14:08 38.55815 -56.01098 36104 ft 489 kts 297°
2026-03-23 14:09 38.58812 -56.08867 36106 ft 489 kts 297°
2026-03-23 14:09 38.61799 -56.16631 36099 ft 488 kts 297°
2026-03-23 14:10 38.64794 -56.24433 36109 ft 488 kts 298°
2026-03-23 14:10 38.67776 -56.32222 36107 ft 488 kts 297°
2026-03-23 14:11 38.70747 -56.40002 36105 ft 488 kts 298°
2026-03-23 14:11 38.73708 -56.47779 36103 ft 487 kts 298°
2026-03-23 14:12 38.76661 -56.55552 36111 ft 487 kts 298°
2026-03-23 14:12 38.79628 -56.63381 36109 ft 487 kts 298°
2026-03-23 14:13 38.82570 -56.71167 36114 ft 487 kts 297°
2026-03-23 14:13 38.85514 -56.78977 36117 ft 487 kts 297°
2026-03-23 14:14 38.88453 -56.86793 36112 ft 487 kts 297°
2026-03-23 14:14 38.91396 -56.94642 36115 ft 487 kts 297°
2026-03-23 14:15 38.94321 -57.02460 36113 ft 488 kts 297°
2026-03-23 14:15 38.97247 -57.10305 36101 ft 487 kts 297°
2026-03-23 14:16 39.00164 -57.18145 36106 ft 487 kts 297°
2026-03-23 14:16 39.03053 -57.25931 36100 ft 486 kts 297°
2026-03-23 14:17 39.05955 -57.33772 36098 ft 484 kts 297°
2026-03-23 14:17 39.08831 -57.41564 36095 ft 484 kts 297°
2026-03-23 14:18 39.11723 -57.49418 36089 ft 484 kts 297°
2026-03-23 14:18 39.14591 -57.57226 36091 ft 483 kts 297°
2026-03-23 14:19 39.17450 -57.65036 36090 ft 482 kts 297°
2026-03-23 14:19 39.20292 -57.72816 36101 ft 481 kts 296°
2026-03-23 14:20 39.23135 -57.80618 36068 ft 481 kts 297°
2026-03-23 14:20 39.25964 -57.88403 36067 ft 479 kts 296°
2026-03-23 14:21 39.28769 -57.96143 36062 ft 478 kts 296°
2026-03-23 14:21 39.31575 -58.03908 36060 ft 476 kts 296°
2026-03-23 14:22 39.34366 -58.11647 36051 ft 475 kts 296°
2026-03-23 14:22 39.37146 -58.19380 36048 ft 475 kts 296°
2026-03-23 14:23 39.39895 -58.27047 36045 ft 474 kts 296°
2026-03-23 14:23 39.42661 -58.34778 36036 ft 473 kts 296°
2026-03-23 14:24 39.45409 -58.42481 36028 ft 473 kts 296°
2026-03-23 14:24 39.48150 -58.50187 36024 ft 473 kts 296°
2026-03-23 14:25 39.50885 -58.57892 36013 ft 472 kts 295°
2026-03-23 14:25 39.53625 -58.65637 36018 ft 472 kts 295°
2026-03-23 14:26 39.56345 -58.73343 36011 ft 472 kts 295°
2026-03-23 14:27 39.60413 -58.84906 36007 ft 472 kts 295°
2026-03-23 14:27 39.63132 -58.92663 36004 ft 471 kts 295°
2026-03-23 14:28 39.65827 -59.00368 36001 ft 470 kts 295°
2026-03-23 14:28 39.68520 -59.08089 36014 ft 470 kts 294°
2026-03-23 14:29 39.71197 -59.15787 35996 ft 469 kts 294°
2026-03-23 14:29 39.73876 -59.23511 35997 ft 468 kts 294°
2026-03-23 14:30 39.76536 -59.31200 35994 ft 468 kts 294°
2026-03-23 14:30 39.79188 -59.38884 35983 ft 467 kts 294°
2026-03-23 14:31 39.81830 -59.46564 35983 ft 466 kts 294°
2026-03-23 14:31 39.84466 -59.54243 35973 ft 465 kts 294°
2026-03-23 14:32 39.87099 -59.61938 35967 ft 464 kts 294°
2026-03-23 14:32 39.89703 -59.69568 35977 ft 464 kts 294°
2026-03-23 14:33 39.92310 -59.77225 35972 ft 464 kts 294°
2026-03-23 14:33 39.94922 -59.84918 35964 ft 463 kts 294°
2026-03-23 14:34 39.97516 -59.92580 35963 ft 463 kts 294°
2026-03-23 14:34 40.00039 -60.00268 35966 ft 462 kts 289°
2026-03-23 14:35 40.01767 -60.08350 35973 ft 463 kts 284°
2026-03-23 14:35 40.03241 -60.16474 35951 ft 462 kts 284°
2026-03-23 14:36 40.04747 -60.24620 35958 ft 461 kts 284°
2026-03-23 14:36 40.06270 -60.32709 35953 ft 460 kts 284°
2026-03-23 14:37 40.07803 -60.40828 35958 ft 460 kts 284°
2026-03-23 14:37 40.09321 -60.48886 35951 ft 459 kts 284°
2026-03-23 14:38 40.10841 -60.56987 35945 ft 458 kts 284°
2026-03-23 14:38 40.12342 -60.65020 35949 ft 458 kts 284°
2026-03-23 14:39 40.13843 -60.73083 35939 ft 458 kts 283°
2026-03-23 14:39 40.15343 -60.81181 35927 ft 457 kts 284°
2026-03-23 14:40 40.16825 -60.89217 35921 ft 457 kts 283°
2026-03-23 14:40 40.18304 -60.97263 35912 ft 456 kts 283°
2026-03-23 14:41 40.19771 -61.05283 35916 ft 455 kts 283°
2026-03-23 14:41 40.21237 -61.13331 35912 ft 455 kts 283°
2026-03-23 14:42 40.22689 -61.21333 35902 ft 454 kts 283°
2026-03-23 14:42 40.24139 -61.29363 35899 ft 454 kts 283°
2026-03-23 14:43 40.25585 -61.37396 35889 ft 454 kts 283°
2026-03-23 14:43 40.27013 -61.45369 35894 ft 453 kts 283°
2026-03-23 14:44 40.28442 -61.53379 35895 ft 452 kts 283°
2026-03-23 14:44 40.29863 -61.61382 35887 ft 452 kts 283°
2026-03-23 14:45 40.31283 -61.69418 35885 ft 452 kts 282°
2026-03-23 14:45 40.32685 -61.77379 35869 ft 451 kts 282°
2026-03-23 14:46 40.34085 -61.85362 35866 ft 450 kts 282°
2026-03-23 14:46 40.35474 -61.93321 35872 ft 450 kts 282°
2026-03-23 14:47 40.37556 -62.05314 35867 ft 450 kts 282°
2026-03-23 14:47 40.38933 -62.13293 35864 ft 449 kts 282°
2026-03-23 14:48 40.40308 -62.21291 35864 ft 449 kts 282°
2026-03-23 14:48 40.41668 -62.29239 35858 ft 449 kts 282°
2026-03-23 14:49 40.43024 -62.37201 35865 ft 449 kts 282°
2026-03-23 14:49 40.44374 -62.45158 35860 ft 448 kts 282°
2026-03-23 14:50 40.45719 -62.53123 35857 ft 447 kts 282°
2026-03-23 14:50 40.47050 -62.61041 35851 ft 447 kts 282°
2026-03-23 14:51 40.48382 -62.69000 35848 ft 446 kts 281°
2026-03-23 14:51 40.49704 -62.76931 35839 ft 446 kts 281°
2026-03-23 14:52 40.51025 -62.84900 35843 ft 446 kts 281°
2026-03-23 14:52 40.52335 -62.92834 35832 ft 446 kts 281°
2026-03-23 14:53 40.53643 -63.00791 35834 ft 446 kts 281°
2026-03-23 14:53 40.54942 -63.08727 35825 ft 446 kts 281°
2026-03-23 14:54 40.56233 -63.16653 35810 ft 446 kts 281°
2026-03-23 14:54 40.57521 -63.24601 35818 ft 446 kts 281°
2026-03-23 14:55 40.58812 -63.32601 35819 ft 446 kts 281°
2026-03-23 14:55 40.60092 -63.40567 35800 ft 446 kts 281°
2026-03-23 14:56 40.61358 -63.48489 35795 ft 445 kts 281°
2026-03-23 14:56 40.62627 -63.56457 35800 ft 445 kts 281°
2026-03-23 14:57 40.63880 -63.64372 35789 ft 444 kts 280°
2026-03-23 14:57 40.65133 -63.72322 35795 ft 445 kts 280°
2026-03-23 14:58 40.66384 -63.80294 35787 ft 445 kts 280°
2026-03-23 14:58 40.67632 -63.88286 35783 ft 445 kts 280°
2026-03-23 14:59 40.68859 -63.96183 35780 ft 444 kts 280°
2026-03-23 14:59 40.70098 -64.04195 35780 ft 445 kts 280°
2026-03-23 15:00 40.71325 -64.12160 35773 ft 446 kts 279°
2026-03-23 15:00 40.72548 -64.20150 35767 ft 445 kts 279°
2026-03-23 15:01 40.73759 -64.28096 35757 ft 445 kts 280°
2026-03-23 15:01 40.74972 -64.36098 35765 ft 445 kts 280°
2026-03-23 15:02 40.76174 -64.44051 35765 ft 445 kts 279°
2026-03-23 15:02 40.77370 -64.52023 35770 ft 443 kts 279°
2026-03-23 15:03 40.78561 -64.59977 35762 ft 443 kts 279°
2026-03-23 15:03 40.79747 -64.67963 35766 ft 443 kts 279°
2026-03-23 15:04 40.80924 -64.75912 35760 ft 444 kts 279°
2026-03-23 15:04 40.82097 -64.83890 35755 ft 443 kts 279°
2026-03-23 15:05 40.83266 -64.91865 35750 ft 444 kts 279°
2026-03-23 15:05 40.84430 -64.99844 35753 ft 443 kts 279°
2026-03-23 15:06 40.85581 -65.07785 35747 ft 443 kts 279°
2026-03-23 15:06 40.86731 -65.15760 35748 ft 443 kts 279°
2026-03-23 15:07 40.87872 -65.23704 35753 ft 442 kts 278°
2026-03-23 15:07 40.89013 -65.31698 35751 ft 442 kts 279°
2026-03-23 15:08 40.90144 -65.39655 35738 ft 442 kts 278°
2026-03-23 15:08 40.91265 -65.47591 35732 ft 442 kts 279°
2026-03-23 15:09 40.92387 -65.55572 35738 ft 441 kts 279°
2026-03-23 15:09 40.93503 -65.63545 35741 ft 441 kts 278°
2026-03-23 15:10 40.94610 -65.71508 35736 ft 440 kts 278°
2026-03-23 15:10 40.95719 -65.79519 35725 ft 441 kts 278°
2026-03-23 15:11 40.96815 -65.87479 35717 ft 440 kts 278°
2026-03-23 15:11 40.97909 -65.95473 35719 ft 440 kts 278°
2026-03-23 15:12 40.98992 -66.03432 35719 ft 440 kts 278°
2026-03-23 15:12 41.00071 -66.11391 35718 ft 440 kts 278°
2026-03-23 15:13 41.01147 -66.19382 35719 ft 441 kts 278°
2026-03-23 15:13 41.02219 -66.27380 35723 ft 441 kts 278°
2026-03-23 15:14 41.03280 -66.35342 35723 ft 442 kts 278°
2026-03-23 15:14 41.04343 -66.43363 35729 ft 441 kts 277°
2026-03-23 15:15 41.05398 -66.51365 35730 ft 442 kts 277°
2026-03-23 15:15 41.06452 -66.59414 35729 ft 442 kts 277°
2026-03-23 15:16 41.07498 -66.67444 35734 ft 443 kts 277°
2026-03-23 15:16 41.08535 -66.75447 35736 ft 444 kts 277°
2026-03-23 15:17 41.09576 -66.83524 35732 ft 443 kts 277°
2026-03-23 15:17 41.10605 -66.91557 35739 ft 442 kts 277°
2026-03-23 15:18 41.11615 -66.99550 35740 ft 442 kts 276°
2026-03-23 15:18 41.12339 -67.07646 35740 ft 441 kts 274°
2026-03-23 15:19 41.12953 -67.15735 35739 ft 441 kts 274°
2026-03-23 15:19 41.13570 -67.23777 35735 ft 440 kts 274°
2026-03-23 15:20 41.14194 -67.31857 35740 ft 439 kts 274°
2026-03-23 15:20 41.14812 -67.39906 35735 ft 438 kts 274°
2026-03-23 15:21 41.15426 -67.47942 35726 ft 438 kts 274°
2026-03-23 15:21 41.16032 -67.55939 35739 ft 438 kts 274°
2026-03-23 15:22 41.16635 -67.63975 35732 ft 438 kts 274°
2026-03-23 15:22 41.17230 -67.71992 35736 ft 437 kts 273°
2026-03-23 15:23 41.17819 -67.80001 35738 ft 437 kts 273°
2026-03-23 15:23 41.18406 -67.88024 35735 ft 436 kts 273°
2026-03-23 15:24 41.18888 -67.96063 35740 ft 436 kts 272°
2026-03-23 15:24 41.19307 -68.04047 35732 ft 435 kts 272°
2026-03-23 15:25 41.19724 -68.12040 35743 ft 435 kts 272°
2026-03-23 15:25 41.20139 -68.20032 35742 ft 433 kts 271°
2026-03-23 15:26 41.20551 -68.27994 35740 ft 433 kts 272°
2026-03-23 15:27 41.21155 -68.39927 35745 ft 432 kts 272°
2026-03-23 15:27 41.21552 -68.47869 35742 ft 431 kts 272°
2026-03-23 15:28 41.21941 -68.55794 35740 ft 431 kts 271°
2026-03-23 15:28 41.22326 -68.63713 35747 ft 430 kts 272°
2026-03-23 15:29 41.22892 -68.75586 35746 ft 430 kts 271°
2026-03-23 15:29 41.23260 -68.83486 35743 ft 428 kts 271°
2026-03-23 15:30 41.23627 -68.91421 35756 ft 428 kts 271°
2026-03-23 15:30 41.23983 -68.99277 35752 ft 427 kts 271°
2026-03-23 15:31 41.24335 -69.07114 35753 ft 426 kts 271°
2026-03-23 15:31 41.24681 -69.14989 35753 ft 425 kts 271°
2026-03-23 15:32 41.25019 -69.22797 35762 ft 425 kts 271°
2026-03-23 15:32 41.25353 -69.30616 35768 ft 425 kts 270°
2026-03-23 15:33 41.25684 -69.38494 35771 ft 425 kts 270°
2026-03-23 15:33 41.26009 -69.46347 35768 ft 425 kts 270°
2026-03-23 15:34 41.26324 -69.54147 35767 ft 425 kts 271°
2026-03-23 15:34 41.26637 -69.61969 35773 ft 424 kts 271°
2026-03-23 15:35 41.26946 -69.69846 35771 ft 424 kts 270°
2026-03-23 15:35 41.27248 -69.77674 35773 ft 425 kts 270°
2026-03-23 15:36 41.27548 -69.85575 35781 ft 424 kts 270°
2026-03-23 15:36 41.27839 -69.93391 35743 ft 426 kts 270°
2026-03-23 15:37 41.28119 -70.01221 35751 ft 425 kts 269°
2026-03-23 15:37 41.27813 -70.09103 35755 ft 422 kts 263°
2026-03-23 15:38 41.27249 -70.16873 35757 ft 422 kts 263°
2026-03-23 15:38 41.26686 -70.24624 35741 ft 422 kts 263°
2026-03-23 15:39 41.26125 -70.32365 35765 ft 420 kts 263°
2026-03-23 15:39 41.25519 -70.40056 35750 ft 421 kts 263°
2026-03-23 15:40 41.24972 -70.47847 35629 ft 421 kts 263°
2026-03-23 15:40 41.24712 -70.51624 35425 ft 408 kts 263°
2026-03-23 15:40 41.24462 -70.55311 35200 ft 394 kts 263°
2026-03-23 15:41 41.24216 -70.58909 34873 ft 384 kts 262°
2026-03-23 15:41 41.23975 -70.62389 34557 ft 375 kts 262°
2026-03-23 15:41 41.23740 -70.65769 34255 ft 366 kts 260°
2026-03-23 15:41 41.23489 -70.69102 33873 ft 358 kts 260°
2026-03-23 15:42 41.23241 -70.72354 33452 ft 350 kts 260°
2026-03-23 15:42 41.23002 -70.75570 33032 ft 344 kts 260°
2026-03-23 15:42 41.22774 -70.78674 32617 ft 337 kts 260°
2026-03-23 15:42 41.22551 -70.81735 32206 ft 331 kts 260°
2026-03-23 15:43 41.22332 -70.84766 31789 ft 326 kts 260°
2026-03-23 15:43 41.22117 -70.87725 31376 ft 320 kts 259°
2026-03-23 15:43 41.21907 -70.90627 30975 ft 315 kts 259°
2026-03-23 15:43 41.21699 -70.93477 30571 ft 309 kts 259°
2026-03-23 15:44 41.21488 -70.96341 30167 ft 312 kts 259°
2026-03-23 15:44 41.21275 -70.99221 29741 ft 318 kts 259°
2026-03-23 15:44 41.21060 -71.02115 29372 ft 311 kts 259°
2026-03-23 15:44 41.20850 -71.04963 28931 ft 307 kts 259°
2026-03-23 15:45 41.20642 -71.07740 28445 ft 304 kts 259°
2026-03-23 15:45 41.20432 -71.10516 27935 ft 301 kts 260°
2026-03-23 15:45 41.20224 -71.13291 27490 ft 297 kts 260°
2026-03-23 15:45 41.20021 -71.15962 27013 ft 294 kts 260°
2026-03-23 15:46 41.19817 -71.18653 26471 ft 293 kts 260°
2026-03-23 15:46 41.19612 -71.21334 25986 ft 290 kts 259°
2026-03-23 15:46 41.19407 -71.23988 25559 ft 285 kts 260°
2026-03-23 15:46 41.19206 -71.26604 25090 ft 283 kts 260°
2026-03-23 15:47 41.19008 -71.29166 24675 ft 278 kts 260°
2026-03-23 15:47 41.18809 -71.31718 24319 ft 276 kts 261°
2026-03-23 15:47 41.18610 -71.34251 24004 ft 280 kts 261°
2026-03-23 15:47 41.18407 -71.36832 23872 ft 279 kts 261°
2026-03-23 15:48 41.18208 -71.39372 23843 ft 278 kts 261°
2026-03-23 15:48 41.18004 -71.41929 23847 ft 282 kts 261°
2026-03-23 15:48 41.17796 -71.44551 23844 ft 283 kts 261°
2026-03-23 15:48 41.17590 -71.47135 23847 ft 282 kts 261°
2026-03-23 15:49 41.17383 -71.49705 23851 ft 280 kts 261°
2026-03-23 15:49 41.17174 -71.52303 23842 ft 280 kts 261°
2026-03-23 15:49 41.16964 -71.54872 23841 ft 282 kts 262°
2026-03-23 15:49 41.16835 -71.57459 23846 ft 280 kts 260°
2026-03-23 15:50 41.16560 -71.59995 23856 ft 279 kts 258°
2026-03-23 15:50 41.16251 -71.62510 23854 ft 277 kts 258°
2026-03-23 15:50 41.15914 -71.65025 23838 ft 277 kts 252°
2026-03-23 15:50 41.15356 -71.67551 23850 ft 280 kts 257°
2026-03-23 15:51 41.14989 -71.70075 23860 ft 279 kts 254°
2026-03-23 15:51 41.14568 -71.72599 23857 ft 278 kts 257°
2026-03-23 15:51 41.14201 -71.75087 23791 ft 275 kts 257°
2026-03-23 15:51 41.13896 -71.77601 23275 ft 276 kts 259°
2026-03-23 15:52 41.13631 -71.80105 22695 ft 279 kts 259°
2026-03-23 15:52 41.13341 -71.82655 22295 ft 277 kts 259°
2026-03-23 15:52 41.13056 -71.85165 22002 ft 274 kts 259°
2026-03-23 15:52 41.12774 -71.87661 21621 ft 274 kts 259°
2026-03-23 15:53 41.12490 -71.90163 21220 ft 275 kts 260°
2026-03-23 15:53 41.12207 -71.92651 20875 ft 273 kts 259°
2026-03-23 15:53 41.11926 -71.95137 20496 ft 272 kts 260°
2026-03-23 15:53 41.11645 -71.97617 20076 ft 273 kts 260°
2026-03-23 15:54 41.11362 -72.00095 19726 ft 272 kts 260°
2026-03-23 15:54 41.11082 -72.02550 19320 ft 273 kts 261°
2026-03-23 15:54 41.10798 -72.05045 18997 ft 271 kts 261°
2026-03-23 15:54 41.10516 -72.07513 18639 ft 270 kts 261°
2026-03-23 15:55 41.10236 -72.09958 18252 ft 269 kts 261°
2026-03-23 15:55 41.09884 -72.12401 17901 ft 268 kts 256°
2026-03-23 15:55 41.09336 -72.14774 17538 ft 267 kts 253°
2026-03-23 15:55 41.08754 -72.17105 17208 ft 267 kts 253°
2026-03-23 15:56 41.08171 -72.19427 16925 ft 266 kts 253°
2026-03-23 15:56 41.07586 -72.21765 16629 ft 265 kts 253°
2026-03-23 15:56 41.07009 -72.24079 16288 ft 265 kts 253°
2026-03-23 15:56 41.06433 -72.26385 15986 ft 264 kts 254°
2026-03-23 15:57 41.05860 -72.28691 15623 ft 264 kts 253°
2026-03-23 15:57 41.05289 -72.30987 15298 ft 263 kts 253°
2026-03-23 15:57 41.04712 -72.33295 15014 ft 261 kts 253°
2026-03-23 15:57 41.04140 -72.35590 14678 ft 261 kts 253°
2026-03-23 15:58 41.03572 -72.37866 14416 ft 261 kts 253°
2026-03-23 15:58 41.02999 -72.40163 14203 ft 260 kts 253°
2026-03-23 15:58 41.02435 -72.42423 13982 ft 259 kts 253°
2026-03-23 15:58 41.01865 -72.44698 13714 ft 260 kts 253°
2026-03-23 15:59 41.01295 -72.46967 13511 ft 259 kts 253°
2026-03-23 15:59 41.00729 -72.49227 13316 ft 257 kts 253°
2026-03-23 15:59 41.00171 -72.51451 13103 ft 257 kts 253°
2026-03-23 15:59 40.99608 -72.53691 12916 ft 255 kts 253°
2026-03-23 16:00 40.99044 -72.55935 12693 ft 255 kts 253°
2026-03-23 16:00 40.98485 -72.58154 12420 ft 256 kts 253°
2026-03-23 16:00 40.97921 -72.60394 12243 ft 254 kts 253°
2026-03-23 16:00 40.97362 -72.62610 12057 ft 253 kts 253°
2026-03-23 16:01 40.96809 -72.64801 11982 ft 247 kts 253°
2026-03-23 16:01 40.96273 -72.66917 11959 ft 239 kts 253°
2026-03-23 16:01 40.95753 -72.68970 11958 ft 227 kts 253°
2026-03-23 16:01 40.95267 -72.70890 11958 ft 210 kts 253°
2026-03-23 16:02 40.94820 -72.72659 11955 ft 193 kts 253°
2026-03-23 16:02 40.94418 -72.74246 11954 ft 175 kts 253°
2026-03-23 16:02 40.94018 -72.75826 11987 ft 195 kts 253°
2026-03-23 16:02 40.93546 -72.77706 11997 ft 238 kts 253°
2026-03-23 16:03 40.92803 -72.79775 11982 ft 254 kts 237°
2026-03-23 16:03 40.91508 -72.81409 11979 ft 261 kts 223°
2026-03-23 16:03 40.90011 -72.82815 11974 ft 265 kts 221°
2026-03-23 16:03 40.88500 -72.84215 11971 ft 264 kts 222°
2026-03-23 16:04 40.87002 -72.85627 11972 ft 263 kts 222°
2026-03-23 16:04 40.85522 -72.87036 11971 ft 263 kts 222°
2026-03-23 16:04 40.84024 -72.88470 11972 ft 266 kts 222°
2026-03-23 16:04 40.82526 -72.89906 11970 ft 262 kts 222°
2026-03-23 16:05 40.81052 -72.91318 11971 ft 264 kts 223°
2026-03-23 16:05 40.79560 -72.92750 11936 ft 264 kts 222°
2026-03-23 16:05 40.78072 -72.94177 11867 ft 265 kts 222°
2026-03-23 16:05 40.76612 -72.95574 11788 ft 260 kts 223°
2026-03-23 16:06 40.75140 -72.96985 11512 ft 261 kts 223°
2026-03-23 16:06 40.73667 -72.98397 11244 ft 262 kts 223°
2026-03-23 16:06 40.72205 -72.99795 11020 ft 259 kts 223°
2026-03-23 16:06 40.70734 -73.01203 10642 ft 262 kts 222°
2026-03-23 16:07 40.69353 -73.02734 10307 ft 255 kts 237°
2026-03-23 16:07 40.68650 -73.04805 9990 ft 247 kts 258°
2026-03-23 16:07 40.68343 -73.07007 9644 ft 247 kts 263°
2026-03-23 16:07 40.68138 -73.09255 9295 ft 246 kts 264°
2026-03-23 16:08 40.67969 -73.11485 8953 ft 246 kts 265°
2026-03-23 16:08 40.67809 -73.13749 8569 ft 247 kts 265°
2026-03-23 16:08 40.67654 -73.15984 8269 ft 245 kts 265°
2026-03-23 16:08 40.67503 -73.18201 7971 ft 243 kts 265°
2026-03-23 16:09 40.67351 -73.20413 7753 ft 246 kts 265°
2026-03-23 16:09 40.67198 -73.22644 7771 ft 244 kts 266°
2026-03-23 16:09 40.67043 -73.24890 7712 ft 244 kts 266°
2026-03-23 16:09 40.66892 -73.27093 7724 ft 242 kts 266°
2026-03-23 16:10 40.66739 -73.29313 7653 ft 244 kts 266°
2026-03-23 16:10 40.66587 -73.31508 7556 ft 233 kts 266°
2026-03-23 16:10 40.66445 -73.33562 7452 ft 220 kts 266°
2026-03-23 16:10 40.66309 -73.35520 7349 ft 208 kts 266°
2026-03-23 16:11 40.66180 -73.37374 7234 ft 197 kts 266°
2026-03-23 16:11 40.66056 -73.39168 6999 ft 198 kts 266°
2026-03-23 16:11 40.65929 -73.40986 6691 ft 201 kts 266°
2026-03-23 16:11 40.65802 -73.42813 6443 ft 200 kts 266°
2026-03-23 16:12 40.65674 -73.44637 6145 ft 202 kts 267°
2026-03-23 16:12 40.65546 -73.46458 5870 ft 203 kts 267°
2026-03-23 16:12 40.65414 -73.48331 5587 ft 205 kts 267°
2026-03-23 16:12 40.65283 -73.50174 5369 ft 204 kts 268°
2026-03-23 16:13 40.65150 -73.52057 5056 ft 208 kts 268°
2026-03-23 16:13 40.64812 -73.53922 4670 ft 216 kts 242°
2026-03-23 16:13 40.63696 -73.55275 4347 ft 223 kts 214°
2026-03-23 16:13 40.62346 -73.56284 4102 ft 224 kts 212°
2026-03-23 16:14 40.60974 -73.57272 3822 ft 226 kts 212°
2026-03-23 16:14 40.59593 -73.58278 3596 ft 226 kts 212°
2026-03-23 16:14 40.58222 -73.59287 3333 ft 227 kts 212°
2026-03-23 16:14 40.56844 -73.60317 3136 ft 226 kts 212°
2026-03-23 16:15 40.55486 -73.61337 2896 ft 227 kts 212°
2026-03-23 16:15 40.54112 -73.62369 2647 ft 228 kts 212°
2026-03-23 16:15 40.52750 -73.63404 2449 ft 224 kts 212°
2026-03-23 16:15 40.51388 -73.64445 2140 ft 227 kts 212°
2026-03-23 16:16 40.50041 -73.65477 2019 ft 220 kts 211°
2026-03-23 16:16 40.48745 -73.66475 1991 ft 208 kts 211°
2026-03-23 16:16 40.47434 -73.67481 2012 ft 235 kts 211°
2026-03-23 16:16 40.46017 -73.68571 1992 ft 230 kts 211°
2026-03-23 16:17 40.44629 -73.69635 1992 ft 229 kts 211°
2026-03-23 16:17 40.43241 -73.70699 1993 ft 231 kts 211°
2026-03-23 16:17 40.41958 -73.71912 1986 ft 225 kts 236°
2026-03-23 16:17 40.41419 -73.73772 1997 ft 220 kts 275°
2026-03-23 16:18 40.41808 -73.75654 2002 ft 211 kts 300°
2026-03-23 16:18 40.42450 -73.77346 1992 ft 203 kts 301°
2026-03-23 16:18 40.43062 -73.78939 1997 ft 184 kts 301°
2026-03-23 16:18 40.43617 -73.80408 1984 ft 179 kts 301°
2026-03-23 16:19 40.44179 -73.81884 1986 ft 179 kts 301°
2026-03-23 16:19 40.44738 -73.83339 1982 ft 178 kts 301°
2026-03-23 16:19 40.45298 -73.84785 1980 ft 178 kts 302°
2026-03-23 16:19 40.45860 -73.86244 1983 ft 178 kts 302°
2026-03-23 16:20 40.46613 -73.87476 1980 ft 171 kts 336°
2026-03-23 16:20 40.47753 -73.87690 1998 ft 168 kts
2026-03-23 16:20 40.48887 -73.87357 2004 ft 166 kts 20°
2026-03-23 16:20 40.49892 -73.86787 1979 ft 144 kts 24°
2026-03-23 16:21 40.50741 -73.86208 1972 ft 133 kts 27°
2026-03-23 16:21 40.51546 -73.85608 1979 ft 131 kts 28°
2026-03-23 16:21 40.52330 -73.85004 1984 ft 131 kts 28°
2026-03-23 16:21 40.53106 -73.84397 1980 ft 128 kts 28°
2026-03-23 16:22 40.53894 -73.83783 1980 ft 130 kts 29°
2026-03-23 16:22 40.54670 -73.83177 1801 ft 128 kts 29°
2026-03-23 16:22 40.55445 -73.82572 1682 ft 129 kts 29°
2026-03-23 16:22 40.56211 -73.81976 1524 ft 128 kts 29°
2026-03-23 16:23 40.56985 -73.81371 1341 ft 130 kts 28°
2026-03-23 16:23 40.57780 -73.80752 1170 ft 127 kts 29°
2026-03-23 16:23 40.58529 -73.80148 956 ft 134 kts 30°
2026-03-23 16:23 40.59333 -73.79520 869 ft 132 kts 29°
2026-03-23 16:24 40.60124 -73.78871 698 ft 137 kts 30°
2026-03-23 16:24 40.60940 -73.78246 487 ft 130 kts 29°
2026-03-23 16:24 40.61711 -73.77673 226 ft 126 kts 29°
2026-03-23 16:24 40.62461 -73.77093 64 ft 121 kts 29°
2026-03-23 16:25 40.63165 -73.76548 17 ft 108 kts 30°
2026-03-23 16:25 40.63652 -73.76171 18 ft 49 kts 29°
2026-03-23 16:25 40.63935 -73.76066 19 ft 37 kts 358°
2026-03-23 16:25 40.64091 -73.76250 18 ft 30 kts 299°
2026-03-23 16:26 40.64191 -73.76465 18 ft 26 kts 302°
2026-03-23 16:26 40.64261 -73.76623 18 ft 15 kts 298°
2026-03-23 16:26 40.64299 -73.76713 18 ft 5 kts 301°
2026-03-23 16:27 40.64304 -73.76723 18 ft 0 kts 301°
2026-03-23 16:29 40.64305 -73.76723 18 ft 1 kts 301°
2026-03-23 16:29 40.64310 -73.76735 18 ft 2 kts 301°
2026-03-23 16:29 40.64352 -73.76826 18 ft 19 kts 301°
2026-03-23 16:29 40.64411 -73.77000 18 ft 20 kts 283°
2026-03-23 16:30 40.64372 -73.77155 18 ft 19 kts 212°
2026-03-23 16:30 40.64257 -73.77245 17 ft 18 kts 210°
2026-03-23 16:30 40.64144 -73.77331 17 ft 18 kts 210°
2026-03-23 16:30 40.64031 -73.77419 17 ft 19 kts 211°
2026-03-23 16:31 40.63915 -73.77509 17 ft 19 kts 211°
2026-03-23 16:31 40.63799 -73.77600 17 ft 19 kts 210°
2026-03-23 16:31 40.63672 -73.77700 16 ft 23 kts 210°
2026-03-23 16:31 40.63528 -73.77812 16 ft 23 kts 211°
2026-03-23 16:32 40.63410 -73.77953 16 ft 22 kts 253°
2026-03-23 16:32 40.63454 -73.78136 16 ft 21 kts 301°
2026-03-23 16:32 40.63530 -73.78304 16 ft 20 kts 301°
2026-03-23 16:32 40.63606 -73.78467 16 ft 20 kts 301°
2026-03-23 16:33 40.63682 -73.78635 17 ft 22 kts 300°
2026-03-23 16:33 40.63766 -73.78813 17 ft 22 kts 303°
2026-03-23 16:33 40.63839 -73.78970 17 ft 18 kts 297°
2026-03-23 16:33 40.63904 -73.79128 17 ft 20 kts 301°
2026-03-23 16:34 40.63973 -73.79280 17 ft 18 kts 300°
2026-03-23 16:34 40.64038 -73.79424 17 ft 17 kts 301°
2026-03-23 16:34 40.64134 -73.79510 17 ft 16 kts 354°
2026-03-23 16:34 40.64211 -73.79455 18 ft 12 kts 57°
2026-03-23 16:35 40.64263 -73.79370 18 ft 11 kts 44°
2026-03-23 16:35 40.64286 -73.79308 18 ft 4 kts 135°
2026-03-23 16:35 40.64261 -73.79288 18 ft 7 kts 152°
2026-03-23 16:35 40.64229 -73.79266 18 ft 1 kts 151°
2026-03-23 16:36 40.64228 -73.79266 18 ft 0 kts 151°
2026-03-23 16:36 40.64226 -73.79264 18 ft 0 kts 151°
2026-03-23 16:36 40.64223 -73.79262 18 ft 0 kts 150°
2026-03-23 16:36 40.64222 -73.79261 18 ft 0 kts 150°